Regional Weather Roundup
Issued by NWS Grand Forks, ND

Home | Current Version | Previous Version | Graphics & Text | Print | Product List | Glossary On
Versions: 1 2 3 4 5 6 7 8 9 10 11 12 13 14 15 16 17 18 19 20 21 22 23 24 25 26 27 28 29 30 31 32 33 34 35 36 37 38 39 40 41 42 43 44 45 46 47 48 49 50
000
ASUS43 KFGF 261610
RWRFGF
PRAIRIE TO PINES  WEATHER ROUNDUP
NATIONAL WEATHER SERVICE EASTERN NORTH DAKOTA/GRAND FORKS ND
1100 AM CDT TUE JUL 26 2016

 **SATELLITE DATA USED TO AUGMENT SKY COVER AT AUTOMATED STATIONS**
 *****  WEATHER ACROSS EASTERN NORTH DAKOTA  *****

CITY           SKY/WX    TMP DP  RH WIND       PRES   REMARKS
GRAND FORKS    CLOUDY    82  65  56 NE9       29.96F
GRAND FRKS AFB SUNNY     80  65  59 NE3       29.98F
GRAND FRKS NWS   N/A     81 N/A N/A N3          N/A
DEVILS LAKE    SUNNY     79  64  60 E12       30.01F
FARGO          CLOUDY    75  66  73 W8        29.96R
WAHPETON ARPT  CLOUDY    73  64  73 NW3       29.99R
$$

 ***** WEATHER ACROSS CENTRAL AND WESTERN NORTH DAKOTA  *****

CITY           SKY/WX    TMP DP  RH WIND       PRES   REMARKS
BISMARCK       CLOUDY    76  67  73 CALM      30.01R
MINOT          CLOUDY    80  67  64 N8        30.02F
JAMESTOWN      SUNNY     79  70  74 E6        29.98S
MINOT AFB      CLOUDY    75  65  71 N9        30.02S
GARRISON         N/A     76  66  71 NW5       30.05R
WILLISTON      CLOUDY    72  62  71 CALM      30.07S
DICKINSON      LGT RAIN  64  61  90 NW7       30.04F
HETTINGER      CLOUDY    71  56  58 NW16G25   30.02F
$$

 *****  OTHER AIRPORT OBSERVATIONS IN OUR AREA  *****

CITY           SKY/WX    TMP DP  RH WIND       PRES   REMARKS
WALHALLA       NOT AVBL
GRAFTON AIRPOR FAIR      79  68  69 CALM      30.01S
VALLEY CITY AR FAIR      77  73  88 E5        30.00S
CANDO          NOT AVBL
CAVALIER APRT  PTSUNNY   75  68  78 N5        30.00S
GWINNER        FAIR      70  68  94 CALM      30.01R
ROLLA          FAIR      73  64  73 N6        30.06S
 ***** THE ABOVE OBSERVATIONS ARE NON NWS ARE NOT QUALITY
       CONTROLLED AND MAY MIS-REPORT RAIN FOR SNOW...
$$

  *****  WEATHER ACROSS NORTHERN MINNESOTA  *****

CITY           SKY/WX    TMP DP  RH WIND       PRES   REMARKS
FLAG ISLAND    SUNNY     75  54  46 NE7       29.98S
WARROAD        NOT AVBL
ROSEAU         CLOUDY    79  68  69 CALM      29.99R
HALLOCK        SUNNY     79  66  65 CALM      29.99R
THF RVR FALLS  CLOUDY    78  65  63 VRB3      30.00R
BAUDETTE       CLOUDY    78  63  59 CALM      29.98S
WASKISH        CLOUDY    81  66  61 CALM      29.97F
CROOKSTON      CLOUDY    79  68  69 N3        29.98R
$$
  *****  WEATHER ACROSS CENTRAL AND WEST MINNESOTA  *****

CITY           SKY/WX    TMP DP  RH WIND       PRES   REMARKS
FOSSTON        CLOUDY    77  72  83 CALM      29.98R
BEMIDJI        PTSUNNY   73  64  73 CALM      29.97F
PARK RAPIDS    PTSUNNY   72  66  81 SW9       30.00R
ELBOW LAKE     FAIR      79  69  71 W8        30.00R
WADENA         CLOUDY    79  66  65 SW8       29.97F
DETROIT LAKES  CLOUDY    72  63  73 CALM      30.00R
MOORHEAD       CLOUDY    73  66  78 W6        29.98R
FERGUS FALLS   CLOUDY    75  66  73 SW8       29.99S
MORRIS MN      MOSUNNY   84  66  54 W12       30.00R
STAPLES        CLOUDY    79  64  61 S6        29.98F
$$
  *****  WEATHER ELSEWHERE ACROSS MINNESOTA  *****

CITY           SKY/WX    TMP DP  RH WIND       PRES   REMARKS
DULUTH         CLOUDY    75  69  81 W7        29.98F
INTRNTL FALLS  CLOUDY    79  63  57 N3        29.97F
ELY            CLOUDY    77  63  61 CALM      29.97F
CLOQUET        MOSUNNY   79  63  57 W6        29.98F
WHEATON        NOT AVBL
BRAINERD       CLOUDY    74  66  76 VRB6      30.00F
HIBBING        PTSUNNY   75  65  70 W5        29.97F
ALEXANDRIA     CLOUDY    79  66  64 SW13      30.02F
SAINT CLOUD    MOSUNNY   81  67  62 SW10      30.02S
MINNEAPOLIS    MOSUNNY   84  64  50 W10G18    30.05S
$$

  *****  WEATHER ACROSS SOUTH DAKOTA  *****

CITY           SKY/WX    TMP DP  RH WIND       PRES   REMARKS
SIOUX FALLS    MOSUNNY   81  65  58 S9        30.07S
BROOKINGS      SUNNY     80  66  62 W10       30.06F
WATERTOWN      SUNNY     82  66  58 SW13      30.04F
HURON          SUNNY     82  66  58 S10       30.01F
SISSETON         N/A     80  66  62 W15G22    29.97S
ABERDEEN       CLOUDY    71  63  75 NW20G29   30.06R THUNDER
MITCHELL       SUNNY     84  66  54 SW9       30.03F
PIERRE         PTSUNNY   85  66  53 W15       30.01R
MOBRIDGE       CLOUDY    86  64  47 W13       29.97R
RAPID CITY     PTSUNNY   71  58  63 SE6       30.05F
$$

  *****  SOME WEATHER IN NEARBY STATES *****

CITY           SKY/WX    TMP DP  RH WIND       PRES   REMARKS
GLASGOW MT     CLOUDY    74  61  63 NE16      30.06R
GREAT FALLS MT SUNNY     73  52  47 E7        30.11F
CHEYENNE WY    CLOUDY    87  33  14 NW13G24   30.20S
SCOTTSBLUFF NE SUNNY     82  55  39 SE7       30.05F
OMAHA NE       MOSUNNY   83  63  50 SE13      30.08S
DES MOINES IA  MOSUNNY   83  62  49 E8        30.08S
DAVENPORT IA   SUNNY     82  66  58 E6        30.09R
CHICAGO IL     MOSUNNY   82  61  48 S5        30.06S
EAU CLAIRE WI  PTSUNNY   83  67  58 SW13      30.06R
LA CROSSE WI   SUNNY     82  68  62 CALM      30.07S
$$

  *****  SOME NATIONAL WEATHER *****

CITY           SKY/WX    TMP DP  RH WIND       PRES   REMARKS
LA GUARDIA NY  MOSUNNY   87  65  47 NW16      29.89F
RALEIGH NC     PTSUNNY   90  75  61 SW6       30.01S HX 100
ATLANTA GA     MOSUNNY   89  72  56 CALM      30.08F HX  96
NEW ORLEANS LA CLOUDY    84  75  74 SE5       29.94S THUNDER HX  92
OKLAHOMA CITY  CLOUDY    76  72  87 SW6       30.05R
ALBUQUERQUE NM CLOUDY    76  58  53 W7        30.28S
SALT LAKE CITY MOSUNNY   89  41  18 S8        30.07S
LOS ANGELES CA MOSUNNY   70  64  81 W12       29.91S
BOISE ID       MOSUNNY   81  38  21 E6        30.01R
SEATTLE WA     CLOUDY    60  57  89 SW7       30.18S
$$

*** WEATHER ACROSS MANITOBA...SASKATCHEWAN AND ONTARIO ***
                ***ONTARIO***

CITY           SKY/WX    TMP DP  RH WIND       PRES   REMARKS
GERALDTON      MOSUNNY   77  57  50 NW12G22   29.88F
THUNDER BAY    MOSUNNY   81  64  57 W5        29.92S
SIOUX LOOKOUT  MOSUNNY   73  54  49 NW10      29.97S
TORONTO        MOSUNNY   81  57  44 NW10      30.00S
BIG TROUT LK   NOT AVBL
PICKLE LAKE    PTSUNNY   72  50  46 W15G28    29.89S
DRYDEN         SUNNY     75  48  38 NW9       29.99S
KENORA         NOT AVBL
$$
                *** MANITOBA***

CITY           SKY/WX    TMP DP  RH WIND       PRES   REMARKS
BRANDON        PTSUNNY   73  59  60 E6        30.06R
DAUPHIN        SUNNY     72  59  64 NE6       30.08R
ISLAND LAKE    CLOUDY    61  52  72 NW9       29.97R
PILOT MOUND      N/A     75  61  60 NE6         N/A
THE PAS        MOSUNNY   64  45  48 N10       30.10S
THOMPSON       CLOUDY    59  50  72 N13       30.05R
WINNIPEG       PTSUNNY   77  55  47 NE12      30.02R
LYNN LAKE      SUNNY     61  45  55 MISG      30.12R
CHURCHILL      CLOUDY    50  48  93 N15       30.02R
GILLAM         CLOUDY    55  50  82 NE13      29.99R
$$
                ***SASKATCHEWAN***

CITY           SKY/WX    TMP DP  RH WIND       PRES   REMARKS
ESTEVAN        CLOUDY    73  55  53 E7        30.09S
KINDERSLEY     LGT RAIN  64  59  82 W7        30.14R
LLOYDMINSTER   MOSUNNY   70  54  56 S8        30.12S
PRINCE ALBERT  MOSUNNY   68  52  56 SE3       30.13S
REGINA         MOSUNNY   73  57  56 VRB2      30.11S
YORKTON        SUNNY     68  59  73 N6        30.10R
N. BATTLEFORD  MOSUNNY   68  55  64 SE5       30.14S
LA RONGE       MOSUNNY   66  46  48 SE9       30.15R
SASKATOON      PTSUNNY   73  52  46 E5        30.13S
SWIFT CURRENT  PTSUNNY   70  57  64 SE12      30.11S
$$
NOTE: THESE ARE AUTOMATED STATIONS WITH LIMITED QUALITY CONTROL
      "FAIR" INDICATES FEW OR NO CLOUDS BELOW 12,000 FEET WITH NO
      SIGNIFICANT WEATHER AND/OR OBSTRUCTIONS TO VISIBILITY.
      SKY/WX - SKY CONDITION AND SIGNIFICANT WEATHER.
      TMP - AIR TEMPERATURE.    DP   - DEWPOINT TEMPERATURE.
      RH  - RELATIVE HUMIDITY.  PRES - PRESSURE.
      HX  - HEAT INDEX.         WCI  - WIND CHILL INDEX.
$




USA.gov is the U.S. government's official web portal to all federal, state and local government web resources and services.